EHI
0 0 0 0 0 0 0 0 1 1 1 2 5 9 12 17 22 24 27 30 31 28 28 32 37 41 45 46 47 47 45 42 40 38 35 34 35 38 40 38 36 35 32 28
0 0 0 0 0 0 0 1 1 1 1 2 5 9 14 18 21 24 27 29 28 26 26 30 35 40 43 45 46 47 46 43 42 39 36 33 33 34 38 38 37 36 33 31
0 0 0 0 0 0 0 1 1 1 2 4 6 10 15 17 20 23 25 25 24 23 23 25 30 35 40 42 44 45 46 44 43 42 37 32 30 32 34 37 37 35 32 32
0 0 0 0 0 0 0 0 0 1 3 6 8 11 13 15 19 21 22 22 21 20 21 22 24 29 34 39 41 41 41 41 42 40 34 30 30 31 34 36 35 32 29 29
0 0 0 0 0 0 0 0 1 2 4 7 10 11 12 14 18 20 19 20 20 21 22 24 24 26 31 35 37 36 36 36 35 33 29 26 27 30 31 32 31 27 25 26
0 0 0 0 0 0 0 1 2 4 5 7 10 12 14 17 20 18 16 18 20 22 25 28 28 27 29 32 33 31 30 28 26 25 25 24 24 26 27 26 25 24 23 23
0 0 0 0 0 0 1 3 5 4 5 7 11 15 18 20 20 17 16 18 20 22 26 29 30 28 27 28 27 25 24 21 19 20 22 23 23 23 23 22 22 22 20 18
0 0 1 1 1 2 5 7 7 5 5 8 12 16 19 21 19 16 17 19 19 20 22 24 24 24 23 22 21 21 21 20 18 17 19 21 22 22 22 21 20 18 16 14
1 2 3 3 3 5 8 8 7 6 7 8 11 15 17 17 16 15 15 15 15 15 17 18 18 18 17 17 17 19 21 20 18 17 16 19 22 22 21 19 17 15 14 13
2 3 3 4 5 6 7 7 7 8 9 9 11 13 13 13 13 12 11 10 10 12 15 17 16 14 13 13 16 18 20 20 18 15 14 15 18 19 18 17 16 14 13 13
3 3 4 5 5 5 5 6 8 10 10 11 11 11 10 9 10 10 9 8 10 12 15 17 16 13 11 12 15 19 20 19 17 13 11 12 12 11 11 12 12 12 12 12
4 4 5 6 5 4 4 6 7 9 11 11 11 10 9 8 8 9 9 8 9 12 14 15 14 11 10 11 14 17 20 19 15 11 10 9 8 7 6 6 6 6 7 8
6 6 6 5 4 4 5 5 6 7 8 9 9 9 9 8 8 8 8 8 10 11 11 10 10 8 8 10 12 14 16 15 11 8 8 8 8 7 6 3 2 2 2 2
5 5 4 3 3 3 3 3 3 3 4 5 6 7 7 8 8 6 6 8 10 10 8 7 6 5 6 8 10 11 11 9 7 6 6 7 7 8 6 4 2 1 0 0
2 2 1 1 1 1 1 1 1 1 1 2 3 4 5 6 6 4 4 6 7 8 6 4 3 3 4 5 7 8 8 7 6 6 6 6 5 5 4 3 1 1 0 0
1 0 0 0 0 0 0 0 0 0 0 0 1 1 2 3 3 1 2 3 4 5 5 4 3 3 3 3 4 6 6 5 4 5 5 4 4 3 3 2 1 0 0 0
1 0 0 0 0 0 0 0 0 0 0 0 0 0 1 1 1 0 1 1 2 2 4 4 3 3 2 2 3 4 4 3 2 3 4 3 2 2 2 1 0 0 0 0
1 0 0 0 0 0 0 0 0 0 0 0 0 0 1 1 0 0 1 1 1 1 2 3 3 2 2 2 2 3 3 3 3 3 2 2 2 2 1 1 0 0 0 0
1 0 0 0 0 0 0 0 0 0 0 0 0 0 0 0 0 0 1 2 1 1 1 1 1 2 3 2 2 3 3 3 2 2 1 0 1 1 1 0 0 0 0 0
0 0 0 0 0 0 0 0 0 0 0 0 0 0 0 0 0 0 1 1 1 0 0 0 1 2 2 1 1 2 2 1 1 1 0 0 0 0 0 1 1 0 0 0
0 0 0 0 0 0 0 0 0 0 0 0 0 0 0 0 0 0 0 0 0 0 0 0 1 1 1 0 0 1 1 0 0 0 0 0 0 0 0 1 1 0 0 0
0 0 0 0 0 0 0 0 0 0 0 0 0 0 0 0 0 0 0 0 0 0 0 0 0 0 0 0 0 0 0 0 0 0 0 0 0 0 0 1 1 0 0 0
0 0 0 0 0 0 0 0 0 0 0 0 0 0 0 0 0 0 0 0 0 0 0 0 0 0 0 0 0 0 0 0 0 0 0 0 0 0 0 0 0 1 1 0
0 0 0 0 0 0 0 0 0 0 0 0 0 0 0 0 0 0 0 0 0 0 0 0 0 0 0 0 0 0 0 0 0 0 0 0 0 0 0 0 0 1 1 1
0 0 0 0 0 0 0 0 0 0 0 0 0 0 0 0 0 0 0 0 0 0 0 0 0 0 0 0 0 0 0 0 0 0 0 0 0 0 0 0 0 1 1 1
0 0 0 0 0 0 0 0 0 0 0 0 0 0 0 0 0 0 0 0 0 0 0 0 0 0 0 0 0 0 0 0 0 0 0 0 0 0 0 0 0 0 0 1
0 0 0 0 0 0 0 0 0 0 0 0 0 0 0 0 0 0 0 0 0 0 0 0 0 0 0 0 0 0 0 0 0 0 0 0 0 0 0 0 0 0 1 1
Wind_Speed
9 8 8 10 11 11 14 14 15 12 11 8 4 3 2 2 2 1 2 2 2 2 2 2 3 3 3 4 4 5 6 7 7 7 6 6 7 6 6 6 6 6 6 6
10 9 9 11 11 12 13 13 14 13 11 4 2 2 2 2 2 2 1 1 1 2 2 2 3 2 2 3 3 4 5 5 6 6 6 6 6 6 6 6 5 5 5 5
10 7 11 13 10 11 10 10 11 11 7 3 3 3 3 3 3 2 1 1 1 1 1 1 2 2 2 2 3 3 3 4 4 5 5 5 5 5 5 6 5 5 5 5
9 9 14 3 1 4 7 7 7 7 5 4 3 2 3 2 2 1 0 1 1 1 1 1 1 2 2 2 3 3 3 3 4 4 4 4 4 5 5 4 4 4 4 5
8 12 11 5 2 4 7 7 4 5 3 2 1 3 3 1 0 0 0 0 0 1 0 1 1 2 2 2 2 3 3 3 3 3 4 4 4 4 4 4 4 4 4 4
9 11 10 2 3 2 6 7 1 2 3 2 3 6 2 1 0 1 1 1 1 1 1 1 1 2 2 2 2 2 2 2 2 2 3 4 4 4 3 3 3 3 3 4
12 11 7 3 2 3 8 1 4 2 2 3 4 5 2 0 1 2 2 1 1 1 1 1 1 2 2 2 2 2 2 2 2 2 2 3 3 3 3 3 3 3 3 3
9 11 5 4 2 4 4 5 4 4 3 4 4 3 1 1 1 2 2 1 1 1 1 1 1 2 2 2 1 2 2 3 2 2 1 1 2 2 3 3 3 4 3 3
5 3 3 3 4 4 5 5 5 5 4 4 4 3 2 1 1 1 1 1 1 1 1 1 1 1 2 1 2 2 3 3 2 2 1 1 1 2 3 3 3 2 2 2
6 5 4 4 3 3 4 5 6 5 5 4 4 4 3 2 2 2 2 2 1 1 1 1 1 1 1 1 1 2 3 2 2 2 2 2 1 2 2 2 2 2 2 1
8 7 6 5 3 5 5 6 5 4 4 4 4 4 3 2 2 2 2 2 2 1 1 1 1 1 1 1 2 2 3 2 2 2 2 2 1 0 1 0 1 1 1 1
6 4 6 6 5 7 7 6 5 4 5 4 3 3 3 2 2 2 2 2 2 2 2 2 1 1 1 1 2 2 2 3 2 2 2 2 2 2 4 2 2 1 0 1
7 8 8 8 8 7 7 7 5 5 5 4 3 2 3 2 2 2 2 3 3 3 3 2 2 2 1 1 1 2 1 2 2 2 2 2 2 2 2 2 2 2 2 2
6 7 7 6 6 6 6 6 5 4 4 3 2 2 2 2 2 2 3 3 3 3 3 3 2 2 1 1 1 2 2 2 2 2 2 2 2 2 2 1 1 1 2 4
6 6 6 6 5 5 5 4 4 3 3 2 2 2 2 2 2 2 2 2 2 3 3 2 2 1 1 1 2 2 2 2 2 1 1 2 2 1 1 1 1 1 0 2
4 4 4 4 4 4 4 3 3 3 2 2 2 1 1 1 1 1 1 1 2 2 1 1 1 1 1 2 2 2 2 2 2 2 2 2 2 2 2 1 2 2 1 1
5 4 4 4 4 3 3 3 3 3 2 1 1 1 0 1 1 1 1 1 1 1 1 0 0 0 1 2 2 2 2 3 4 3 2 2 2 2 2 2 2 2 1 1
4 4 4 3 3 3 3 2 2 1 1 1 0 0 0 0 0 1 2 2 2 2 2 2 1 1 1 2 2 1 2 2 2 2 2 2 2 2 2 2 2 2 1 1
1 2 2 2 2 2 2 1 1 1 1 0 1 1 1 1 1 2 2 2 2 2 2 2 1 1 1 2 2 2 1 1 1 1 1 1 2 2 2 2 2 2 1 1
2 1 1 1 1 1 1 0 1 1 1 1 1 1 1 1 1 2 2 2 3 3 2 2 1 1 2 2 1 2 2 1 1 0 0 1 1 1 1 1 2 1 1 1
3 3 2 2 2 1 1 1 1 1 1 1 2 1 1 1 1 1 1 1 2 2 2 1 0 1 2 2 1 1 1 1 1 0 0 0 0 0 0 1 1 1 1 1
3 3 3 2 2 2 2 2 2 2 2 2 2 2 1 1 1 1 2 1 2 2 1 1 2 4 3 1 1 1 1 1 1 1 0 0 0 1 1 1 1 1 1 1
3 2 2 2 2 2 2 2 3 2 2 2 1 1 1 1 1 1 2 2 2 3 1 3 5 4 2 1 1 1 1 1 0 1 0 0 1 1 1 1 1 1 1 1
2 2 2 2 2 2 2 2 2 2 2 1 1 1 0 1 1 2 2 4 3 2 2 4 3 2 2 1 0 0 1 0 0 0 0 0 0 1 1 1 1 1 1 2
1 1 1 1 1 2 2 2 2 2 1 1 2 2 1 1 1 2 2 3 3 1 2 4 3 0 2 1 1 1 1 1 1 1 1 1 1 1 1 1 1 2 2 2
1 1 1 1 1 1 1 1 1 1 1 1 1 2 2 2 2 2 2 3 3 2 1 2 2 1 1 1 1 1 0 1 1 1 1 1 1 1 1 1 1 1 2 2
1 1 1 1 1 1 1 1 1 1 1 1 1 2 2 2 2 2 2 1 1 1 1 1 1 1 1 1 1 1 0 0 0 1 0 0 1 1 1 1 1 1 1 1
Wind_Direction
273 281 274 264 253 244 246 257 263 264 260 265 261 259 236 213 204 189 170 162 153 154 154 165 170 175 182 189 190 191 194 193 192 195 199 203 204 204 202 206 210 214 218 219
257 255 260 261 256 250 249 253 256 261 263 279 287 238 212 200 198 202 185 194 191 169 165 166 161 167 171 178 179 184 189 189 187 193 199 199 202 200 200 204 208 209 213 218
257 249 258 246 246 249 246 248 253 256 270 273 246 227 227 219 207 217 200 213 234 232 203 175 170 161 164 166 171 174 176 183 184 188 191 192 196 194 199 203 201 203 210 216
261 252 249 254 10 268 259 252 254 263 271 266 263 239 234 202 189 182 263 234 236 224 209 172 148 138 147 148 157 165 166 170 173 176 179 182 186 191 197 202 202 204 211 219
255 250 252 227 231 260 258 251 255 261 267 260 241 209 195 161 293 282 272 289 286 315 259 129 141 148 154 158 160 164 164 163 160 170 175 178 178 184 192 195 202 209 204 215
245 258 255 224 77 333 273 241 180 260 262 263 250 245 215 103 299 300 299 268 269 251 196 171 179 171 183 181 177 178 169 155 155 166 181 184 185 191 195 198 205 216 210 212
244 250 255 43 7 250 244 337 23 326 275 252 258 297 348 230 279 283 279 257 238 219 180 173 199 200 197 193 188 174 155 153 162 173 185 186 188 194 198 207 205 217 226 220
240 246 240 44 308 280 350 358 332 316 293 278 286 296 278 213 257 276 280 256 228 204 187 194 219 218 213 204 178 166 161 155 162 176 202 176 178 195 202 206 208 211 213 220
261 276 18 344 329 336 323 317 316 306 297 284 280 277 261 255 263 282 292 283 250 223 207 233 242 233 229 205 182 181 173 163 157 150 155 165 174 190 204 199 212 215 210 207
258 252 275 292 304 323 327 321 318 308 297 282 280 281 278 268 273 269 274 268 261 233 242 260 261 238 205 192 194 183 176 165 162 164 170 157 191 206 216 203 203 209 218 219
254 264 276 259 291 317 319 315 317 312 294 285 284 277 269 273 277 276 263 259 252 253 249 253 261 255 218 185 196 194 191 188 187 188 177 167 173 14 265 359 347 249 247 242
269 289 287 290 302 307 305 307 312 310 300 292 283 272 268 266 261 266 271 260 252 258 262 260 239 241 242 214 188 192 196 199 203 193 176 181 162 131 74 83 82 121 161 262
283 293 292 291 294 293 295 302 304 302 299 296 293 276 269 262 252 257 263 261 254 262 272 268 244 249 251 234 212 201 204 199 216 214 192 193 188 181 174 149 139 141 157 153
274 283 279 281 289 296 300 305 303 300 302 299 285 277 274 267 262 259 267 276 277 270 266 258 244 240 238 238 234 217 215 186 209 226 217 203 206 209 210 214 170 161 173 166
271 274 276 286 290 293 296 297 302 306 310 315 313 288 265 262 268 279 278 274 275 269 263 261 243 235 225 221 230 229 222 217 201 211 215 211 209 211 217 222 246 242 243 152
285 278 271 276 280 287 290 293 301 312 314 315 319 315 302 294 310 321 310 276 253 266 275 254 244 252 219 204 211 206 186 158 186 203 207 211 212 211 216 220 245 261 251 253
271 277 283 287 286 288 297 304 308 314 320 308 286 294 67 79 33 6 354 4 2 340 333 326 318 164 192 185 190 183 170 157 163 191 206 213 217 219 221 227 232 249 256 46
268 280 294 297 299 307 314 318 321 326 322 299 246 200 108 49 27 35 41 54 54 48 40 33 52 114 161 153 155 160 155 161 174 180 186 199 225 235 229 223 220 227 229 174
301 295 301 321 322 318 326 348 6 22 52 96 129 93 72 55 61 72 63 56 33 24 20 30 59 172 143 123 130 146 152 155 161 162 165 163 212 232 238 237 235 232 236 237
35 10 342 348 355 359 346 39 77 95 113 128 115 105 84 71 72 75 55 29 8 6 14 26 28 77 104 121 157 149 141 140 135 129 163 228 257 277 271 244 231 232 235 247
40 32 31 33 39 43 64 104 107 104 108 122 127 119 101 92 100 89 43 40 37 18 9 42 42 68 90 89 155 137 131 135 140 126 298 302 312 306 290 280 265 262 262 265
36 33 34 40 52 62 70 93 98 95 95 100 110 116 123 145 143 110 74 46 40 28 347 38 62 58 44 359 139 122 121 132 148 144 143 215 313 311 309 315 303 293 303 313
29 37 47 45 53 68 71 78 87 93 97 97 100 106 97 76 73 92 84 69 55 47 25 49 59 61 7 269 112 116 109 109 130 145 141 196 300 296 298 302 311 315 324 321
21 33 47 52 67 78 77 78 80 92 101 111 123 107 97 120 112 100 84 94 79 73 65 76 75 46 282 251 155 99 83 44 0 149 178 232 279 304 307 309 319 327 330 339
17 32 70 73 89 92 97 108 115 125 143 129 116 113 121 82 69 76 80 84 90 107 104 107 119 197 281 358 39 38 36 28 356 315 265 265 300 326 337 343 347 344 344 339
64 57 62 67 65 42 79 85 81 83 88 91 88 84 85 94 101 107 112 113 111 111 89 90 104 151 328 18 33 36 71 119 188 250 319 346 352 348 359 13 15 357 341 333
145 141 148 139 121 61 35 66 64 53 53 77 94 86 82 88 98 95 93 96 108 108 91 85 95 92 35 27 32 20 14 39 341 322 339 349 11 16 23 5 349 350 332 333